Home   Weather   Jamestown   Past weeks
Flag for Saint Helena

Past Weather in Jamestown, Saint Helena — Yesterday and Last 2 Weeks

Now
60 °F

Cool.


Feels Like: 60 °F
Forecast: 70 / 67 °F
Wind: 13 mph from Southeast

Location: Saint Helena Island

Current Time: Oct 22, 2019 at 6:43:01 am

Latest Report: Oct 22, 2019 at 4:50 am


Visibility: N/A

Pressure: 30.02 "Hg

Humidity: 92%

Dew Point: 58 °F

Location of JamestownLocation

Past Weather in Jamestown — Graph

°F

Jamestown Temperature Yesterday

Maximum temperature yesterday: 67 °F (at 10:50 am)
Minimum temperature yesterday: 59 °F (at 11:50 pm)
Average temperature yesterday: 62 °F

High & Low Weather Summary for the Past Weeks

 TemperatureHumidityPressure
High73 °F (Oct 20, 2:50 pm)98% (Oct 9, 2:50 am)30.13 "Hg (Oct 9, 2:50 am)
Low58 °F (Oct 12, 2:50 am)46% (Oct 20, 2:50 pm)29.94 "Hg (Oct 18, 2:50 pm)
Average62 °F84%30.04 "Hg
* Reported Oct 7 4:50 am — Oct 22 4:50 am, Jamestown. Weather by CustomWeather, © 2019

Note: Actual official high and low records may vary slightly from our data, if they occured in-between our weather recording intervals... More about our weather records

Advertising

Jamestown Weather History for the Previous 24 Hours

Scroll right to see more
 ConditionsComfort  
Time TempWeatherWind HumidityBarometerVisibility
4:50 am
Tue, Oct 22
60 °FCool.13 mph92%30.02 "HgN/A
4:00 am60 °FCool.14 mph91%30.00 "HgN/A
3:50 am60 °FCool.14 mph91%30.00 "HgN/A
2:50 am60 °FCool.15 mph93%30.01 "HgN/A
1:50 am60 °FCool.14 mph94%30.03 "HgN/A
1:00 am60 °FCool.14 mph92%30.03 "HgN/A
11:50 pm
Mon, Oct 21
59 °FCool.13 mph94%30.05 "HgN/A
10:00 pm61 °FCool.13 mph92%30.06 "HgN/A
8:50 pm61 °FCool.14 mph92%30.05 "HgN/A
8:00 pm61 °FCool.17 mph92%30.03 "HgN/A
7:00 pm62 °FCool.16 mph90%30.02 "HgN/A
5:50 pm62 °FCool.15 mph89%30.01 "HgN/A
5:00 pm63 °FMild.17 mph85%30.00 "HgN/A
3:50 pm64 °FMild.18 mph80%30.00 "HgN/A
2:50 pm65 °FMild.16 mph81%30.00 "HgN/A
1:50 pm65 °FLow clouds.17 mph79%30.01 "Hg19 mi
12:50 pm66 °FLow clouds.18 mph78%30.02 "Hg19 mi
11:50 am66 °FLow clouds.17 mph76%30.04 "Hg25 mi
10:50 am67 °FLow clouds.20 mph75%30.05 "Hg2 mi
10:00 am64 °FLow clouds.18 mph83%30.07 "Hg25 mi
8:50 am62 °FLow clouds.20 mph86%30.08 "Hg25 mi
7:50 am62 °FCool.20 mph87%30.06 "HgN/A
6:50 am60 °FCool.17 mph92%30.04 "HgN/A
Weather by CustomWeather, © 2019

See weather overview